[[{"header":{"parameterUnit":"m.s-1","parameterCategory":1,"la1":30.2991,"la2":30.254,"lo1":-89.0895,"lo2":-89.0444,"dy":0.0017,"dx":0.0017,"nx":28,"ny":28,"refTime":"2024-12-02T03:00:00:Z","depth":0,"parameterNumber":2,"parameterNumberName":"U-component_of_WINDS"},"data":[0,0,0,0,0,0,0,0,0,0,0,0,0,0,0,0,0,0,0,0,0,0,0,0,0,0,0,0,0,0,0,0,0,0,0,0,0,0,0,0,0,0,0,0,0,0,0,0,0,0,0,0,0,0,0,0,0,0,-0.5144,-0.5145,0,-0.517,-0.5171,-0.5171,-0.5141,-0.514,-0.5139,-0.5138,-0.5165,-0.5167,-0.5169,0,0,0,0,0,0,0,0,0,0,0,0,0,-0.5068,-0.507,-0.5144,-0.5145,-0.5145,-0.517,-0.5171,-0.5171,-0.5141,-0.514,-0.5139,-0.5137,-0.5165,-0.5167,-0.5169,0,0,0,0,0,0,0,0,0,0,0,0,0,-0.5098,-0.507,-0.5144,-0.5133,-0.5132,-0.517,-0.5171,-0.5171,-0.5142,-0.514,-0.5138,-0.5137,-0.5164,-0.5166,-0.5169,-0.5219,0,0,-0.5177,-0.5178,0,0,0,0,0,0,0,0,-0.5097,-0.5101,-0.5134,-0.5134,-0.5133,-0.5151,-0.5154,-0.5187,-0.5142,-0.5138,-0.5138,-0.5136,-0.5162,-0.5164,-0.5173,-0.5221,-0.5222,-0.5177,-0.5179,-0.518,-0.5181,0,0,0,0,0,0,0,-0.5095,-0.51,-0.5155,-0.5135,-0.5134,-0.5127,-0.5129,-0.516,-0.5159,-0.5138,-0.5136,-0.514,-0.5161,-0.5171,-0.5174,-0.5222,-0.5177,-0.518,-0.5181,-0.5182,-0.531,-0.5312,0,0,0,0,0,0,-0.5094,-0.5098,-0.5154,-0.5155,-0.511,-0.5129,-0.5132,-0.5147,-0.5159,-0.5159,-0.5141,-0.5138,-0.5167,-0.517,-0.5174,-0.5233,-0.518,-0.5183,-0.5184,-0.5309,-0.5311,-0.5313,0,0,0,0,0,0,-0.5092,-0.5099,-0.5153,-0.5126,-0.5133,-0.5132,-0.5149,-0.5148,-0.5158,-0.5161,-0.516,-0.5151,-0.5166,-0.5171,-0.5208,-0.5234,-0.5184,-0.5186,-0.5307,-0.5309,-0.5312,-0.5351,0,0,0,0,0,0,-0.509,-0.5099,-0.5118,-0.5127,-0.5134,-0.5186,-0.5151,-0.515,-0.5162,-0.5159,-0.517,-0.517,-0.5165,-0.5204,-0.5211,-0.5236,-0.5188,-0.5304,-0.5308,-0.5311,-0.5348,-0.5355,-0.5361,0,0,0,0,0,-0.5088,-0.5129,-0.5119,-0.5126,-0.5158,-0.5188,-0.5192,-0.5185,-0.5165,-0.5184,-0.5185,-0.517,-0.523,-0.5208,-0.5215,-0.5242,-0.5303,-0.5307,-0.5311,-0.5345,-0.5354,-0.5361,0,0,0,0,0,0,-0.5124,-0.513,-0.5119,-0.5165,-0.5176,-0.5183,-0.5207,-0.5194,-0.5212,-0.5208,-0.5198,-0.5201,-0.524,-0.5245,-0.5221,-0.529,-0.5263,-0.5268,-0.5286,-0.5295,-0.5301,-0.5299,-0.5191,0,0,0,0,0,-0.5137,-0.516,-0.5164,-0.5204,-0.521,-0.5207,-0.522,-0.5213,-0.5225,-0.5229,-0.5234,-0.5245,-0.5266,-0.5281,-0.5301,-0.5348,-0.5349,-0.537,-0.5377,-0.5382,-0.5387,-0.5411,-0.542,-0.5326,-0.5326,-0.5326,0,0,-0.5164,-0.517,-0.5186,-0.5211,-0.5219,-0.5243,-0.5212,-0.5239,-0.5257,-0.5233,-0.5269,-0.5272,-0.5284,-0.5327,-0.5346,-0.5332,-0.5413,-0.5387,-0.5392,-0.5394,-0.5416,-0.5425,-0.5433,-0.5329,-0.5328,-0.5328,0,0,-0.5227,-0.5234,-0.5267,-0.5275,-0.5287,-0.5285,-0.5293,-0.5301,-0.5303,-0.5338,-0.532,-0.5341,-0.5378,-0.5387,-0.5397,-0.546,-0.5446,-0.5467,-0.5503,-0.5526,-0.5533,-0.554,-0.5562,-0.557,-0.5472,-0.5472,-0.5472,0,-0.526,-0.5295,-0.5286,-0.5314,-0.5325,-0.5304,-0.5337,-0.5345,-0.5363,-0.5371,-0.5356,-0.54,-0.5407,-0.5451,-0.5466,-0.5475,-0.5483,-0.5466,-0.5533,-0.554,-0.5545,-0.5566,-0.5575,-0.5474,-0.5474,-0.5474,-0.5474,0,-0.5334,-0.5359,-0.5384,-0.5401,-0.5415,-0.5446,-0.544,-0.5455,-0.5447,-0.5446,-0.5481,-0.5489,-0.5509,-0.5519,-0.5511,-0.5561,-0.5551,-0.5535,-0.5507,-0.5557,-0.5576,-0.5584,-0.5478,-0.5477,-0.5476,-0.5476,0,0,-0.5422,-0.5432,-0.5441,-0.5448,-0.5459,-0.5478,-0.5506,-0.5526,-0.5538,-0.5551,-0.5574,-0.5605,-0.5589,-0.56,-0.5593,-0.5614,-0.5662,-0.5594,-0.5594,-0.5606,-0.5716,-0.5729,-0.5738,-0.5653,-0.5654,-0.5656,-0.5715,0,-0.5484,-0.5533,-0.5525,-0.5573,-0.5595,-0.5575,-0.56,-0.5609,-0.5609,-0.5627,-0.5627,-0.5649,-0.5626,-0.5632,-0.5652,-0.5652,-0.5684,-0.5648,-0.5674,-0.5675,-0.5672,-0.5748,-0.5762,-0.5818,-0.5722,-0.5724,-0.5725,0,-0.5563,-0.5577,-0.5628,-0.5633,-0.5642,-0.5665,-0.5681,-0.5699,-0.5709,-0.5707,-0.5718,-0.5707,-0.5735,-0.5706,-0.5744,-0.5719,-0.5729,-0.5731,-0.5733,-0.5735,-0.5703,-0.5752,-0.5835,-0.5844,-0.5737,-0.5736,-0.5735,0,-0.562,-0.5653,-0.5686,-0.5693,-0.5701,-0.5717,-0.5721,-0.5729,-0.574,-0.5754,-0.5761,-0.5779,-0.5788,-0.5801,-0.5795,-0.5774,-0.5834,-0.5804,-0.5832,-0.5833,-0.5846,-0.5845,-0.5932,-0.5853,-0.5853,-0.5853,-0.5853,0,-0.569,-0.5722,-0.5712,-0.5733,-0.5767,-0.5756,-0.579,-0.5792,-0.5799,-0.5819,-0.5803,-0.5822,-0.5812,-0.5831,-0.5826,-0.5857,-0.5862,-0.5861,-0.5859,-0.5862,-0.5862,-0.5869,-0.5865,-0.5855,-0.5855,-0.5854,-0.5854,0,-0.5761,-0.5756,-0.5791,-0.5795,-0.5796,-0.5821,-0.5825,-0.5844,-0.5841,-0.5867,-0.5873,-0.5869,-0.589,-0.5885,-0.5908,-0.5904,-0.5944,-0.5937,-0.5941,-0.5939,-0.5967,-0.5964,-0.606,-0.6072,-0.5986,-0.5987,-0.5988,0,-0.5806,-0.5829,-0.5835,-0.5847,-0.5852,-0.5872,-0.5884,-0.5874,-0.5886,-0.5897,-0.5915,-0.5934,-0.5949,-0.5983,-0.5982,-0.5999,-0.5993,-0.6025,-0.5995,-0.5997,-0.5993,-0.5991,-0.5993,-0.6031,-0.6032,-0.6033,-0.6034,0,-0.5886,-0.5882,-0.5899,-0.5914,-0.5928,-0.594,-0.595,-0.5961,-0.5951,-0.5966,-0.5987,-0.5998,-0.602,-0.6039,-0.6054,-0.6058,-0.6044,-0.6043,-0.605,-0.6054,-0.6054,-0.6054,-0.5956,-0.6041,-0.604,-0.604,-0.6039,-0.6039,-0.5945,-0.5964,-0.5971,-0.5989,-0.5996,-0.6005,-0.6023,-0.6022,-0.6039,-0.6057,-0.605,-0.6073,-0.608,-0.6099,-0.6105,-0.6123,-0.611,-0.6121,-0.6124,-0.6126,-0.613,-0.6052,-0.6125,-0.6125,-0.6125,-0.6125,-0.6125,0,-0.6024,-0.6026,-0.6044,-0.6058,-0.6072,-0.6057,-0.6067,-0.6081,-0.6101,-0.6109,-0.6123,-0.6146,-0.6164,-0.6165,-0.6181,-0.6195,-0.6189,-0.62,-0.6199,-0.6199,-0.614,-0.6132,-0.6204,-0.6204,-0.6204,-0.6204,-0.6204,-0.6204,-0.6066,-0.6098,-0.6094,-0.6128,-0.613,-0.6153,-0.616,-0.6168,-0.6174,-0.62,-0.6215,-0.6215,-0.6219,-0.6235,-0.6251,-0.625,-0.6257,-0.627,-0.6267,-0.6212,-0.6204,-0.6196,-0.6188,-0.6272,-0.6272,-0.6325,-0.6326,-0.6326]},{"header":{"parameterUnit":"m.s-1","parameterCategory":1,"la1":30.2991,"la2":30.254,"lo1":-89.0895,"lo2":-89.0444,"dy":0.0017,"dx":0.0017,"nx":28,"ny":28,"refTime":"2024-12-02T03:00:00:Z","depth":0,"parameterNumber":3,"parameterNumberName":"V-component_of_WINDS"},"data":[0,0,0,0,0,0,0,0,0,0,0,0,0,0,0,0,0,0,0,0,0,0,0,0,0,0,0,0,0,0,0,0,0,0,0,0,0,0,0,0,0,0,0,0,0,0,0,0,0,0,0,0,0,0,0,0,0,0,-2.576,-2.576,0,-2.5817,-2.5818,-2.5818,-2.5789,-2.5787,-2.5786,-2.5784,-2.5841,-2.5844,-2.5847,0,0,0,0,0,0,0,0,0,0,0,0,0,-2.5621,-2.5624,-2.576,-2.576,-2.5761,-2.5817,-2.5818,-2.5819,-2.5789,-2.5787,-2.5785,-2.5783,-2.584,-2.5844,-2.5847,0,0,0,0,0,0,0,0,0,0,0,0,0,-2.568,-2.5625,-2.5759,-2.5753,-2.5753,-2.5817,-2.5818,-2.5819,-2.5789,-2.5787,-2.5785,-2.5783,-2.5839,-2.5844,-2.5848,-2.5921,0,0,-2.5861,-2.5863,0,0,0,0,0,0,0,0,-2.5677,-2.5686,-2.5753,-2.5754,-2.5754,-2.5793,-2.579,-2.5853,-2.579,-2.5775,-2.5784,-2.5781,-2.5827,-2.5832,-2.5848,-2.5924,-2.5926,-2.5862,-2.5864,-2.5866,-2.5868,0,0,0,0,0,0,0,-2.5673,-2.5683,-2.5782,-2.5754,-2.5754,-2.5746,-2.5752,-2.5802,-2.5813,-2.5776,-2.5774,-2.5782,-2.5827,-2.5844,-2.5849,-2.5927,-2.5862,-2.5866,-2.5868,-2.587,-2.6064,-2.6066,0,0,0,0,0,0,-2.567,-2.568,-2.578,-2.5784,-2.5709,-2.5751,-2.5757,-2.5783,-2.5813,-2.5815,-2.5784,-2.578,-2.5838,-2.5844,-2.5851,-2.5938,-2.5866,-2.587,-2.5873,-2.6061,-2.6064,-2.6067,0,0,0,0,0,0,-2.5667,-2.5679,-2.5778,-2.5731,-2.5743,-2.5756,-2.5785,-2.5785,-2.5802,-2.5818,-2.582,-2.5799,-2.5836,-2.5845,-2.5904,-2.5939,-2.5872,-2.5876,-2.6058,-2.6062,-2.6066,-2.6112,0,0,0,0,0,0,-2.5663,-2.5678,-2.5707,-2.5732,-2.5746,-2.5831,-2.5787,-2.5788,-2.581,-2.5806,-2.5833,-2.5836,-2.5835,-2.5897,-2.5908,-2.5944,-2.588,-2.6055,-2.606,-2.6064,-2.6108,-2.6117,-2.6125,0,0,0,0,0,-2.5658,-2.5717,-2.5708,-2.5721,-2.5782,-2.5833,-2.584,-2.5839,-2.5813,-2.5842,-2.5852,-2.5835,-2.5934,-2.5903,-2.5915,-2.5954,-2.6053,-2.6059,-2.6064,-2.6104,-2.6115,-2.6125,0,0,0,0,0,0,-2.5696,-2.5721,-2.5711,-2.578,-2.5805,-2.5828,-2.5863,-2.5852,-2.5883,-2.5878,-2.5874,-2.5881,-2.5941,-2.5953,-2.5919,-2.6025,-2.5989,-2.5997,-2.6015,-2.6026,-2.6035,-2.6031,-2.5884,0,0,0,0,0,-2.5712,-2.5752,-2.5771,-2.5831,-2.5843,-2.5851,-2.5873,-2.587,-2.5895,-2.5905,-2.5919,-2.5943,-2.5979,-2.6004,-2.6038,-2.6109,-2.6114,-2.6141,-2.615,-2.6157,-2.6164,-2.6201,-2.6213,-2.6085,-2.6085,-2.6085,0,0,-2.5746,-2.5765,-2.579,-2.5839,-2.5857,-2.5897,-2.586,-2.5905,-2.5934,-2.5911,-2.5967,-2.5979,-2.6005,-2.607,-2.6099,-2.6082,-2.62,-2.6164,-2.617,-2.6173,-2.6208,-2.622,-2.6231,-2.6089,-2.6088,-2.6088,0,0,-2.5829,-2.5847,-2.5898,-2.5917,-2.5946,-2.5951,-2.5963,-2.5988,-2.5994,-2.6051,-2.6034,-2.6069,-2.6132,-2.6151,-2.6169,-2.6258,-2.6243,-2.6269,-2.6315,-2.6352,-2.6362,-2.6371,-2.6401,-2.6413,-2.6276,-2.6276,-2.6276,0,-2.5868,-2.5928,-2.5926,-2.5972,-2.5993,-2.5974,-2.6025,-2.6044,-2.6082,-2.6096,-2.6076,-2.6154,-2.6171,-2.624,-2.6261,-2.6277,-2.629,-2.6266,-2.6361,-2.637,-2.6378,-2.6407,-2.6419,-2.6279,-2.6279,-2.6279,-2.6278,0,-2.5974,-2.6016,-2.6054,-2.6091,-2.6117,-2.6165,-2.6169,-2.6195,-2.6189,-2.6196,-2.6252,-2.6272,-2.6309,-2.6325,-2.632,-2.6393,-2.6381,-2.6361,-2.6325,-2.6393,-2.642,-2.6432,-2.6283,-2.6282,-2.6282,-2.6281,0,0,-2.6083,-2.6117,-2.6131,-2.6147,-2.6177,-2.6209,-2.6255,-2.6293,-2.6314,-2.6341,-2.6379,-2.6433,-2.6414,-2.6434,-2.6431,-2.6463,-2.6531,-2.6439,-2.6439,-2.6455,-2.6611,-2.6626,-2.6639,-2.6521,-2.6524,-2.6525,-2.6609,0,-2.6167,-2.6249,-2.6248,-2.6323,-2.6362,-2.6344,-2.6384,-2.6406,-2.6413,-2.6446,-2.6454,-2.6491,-2.6464,-2.6476,-2.6507,-2.6516,-2.6562,-2.651,-2.6556,-2.6558,-2.655,-2.6653,-2.6669,-2.6747,-2.6619,-2.6621,-2.6623,0,-2.6276,-2.6306,-2.6386,-2.6409,-2.6425,-2.6461,-2.6494,-2.6526,-2.655,-2.6553,-2.6576,-2.6567,-2.6613,-2.6576,-2.6639,-2.6603,-2.6622,-2.6629,-2.6632,-2.6636,-2.6594,-2.6659,-2.6772,-2.6783,-2.664,-2.6638,-2.6637,0,-2.6346,-2.6407,-2.6462,-2.6476,-2.6505,-2.653,-2.6543,-2.6565,-2.6587,-2.6616,-2.663,-2.6663,-2.6682,-2.6707,-2.6708,-2.6681,-2.6771,-2.6734,-2.6774,-2.6774,-2.6793,-2.6792,-2.691,-2.6806,-2.6806,-2.6806,-2.6806,0,-2.644,-2.6489,-2.6494,-2.6528,-2.6582,-2.6579,-2.6633,-2.6643,-2.6662,-2.6697,-2.6684,-2.6717,-2.6715,-2.6748,-2.6748,-2.68,-2.6808,-2.6811,-2.6811,-2.6812,-2.6812,-2.6824,-2.6819,-2.6809,-2.6808,-2.6808,-2.6807,0,-2.6528,-2.6533,-2.6592,-2.6613,-2.662,-2.6659,-2.6677,-2.6708,-2.6714,-2.6758,-2.6768,-2.6777,-2.6815,-2.6818,-2.6862,-2.6862,-2.6924,-2.6918,-2.6916,-2.6915,-2.6954,-2.695,-2.7084,-2.7101,-2.6987,-2.6988,-2.6989,0,-2.6587,-2.6625,-2.665,-2.6673,-2.6687,-2.6724,-2.6746,-2.6744,-2.6768,-2.6797,-2.6825,-2.6862,-2.6891,-2.6953,-2.6962,-2.6996,-2.699,-2.7034,-2.6995,-2.6995,-2.6989,-2.6987,-2.699,-2.7042,-2.7043,-2.7044,-2.7045,0,-2.6692,-2.6692,-2.6725,-2.6759,-2.6786,-2.6812,-2.6836,-2.6855,-2.6856,-2.6883,-2.6922,-2.6945,-2.699,-2.7026,-2.7058,-2.707,-2.7058,-2.7057,-2.7068,-2.707,-2.7067,-2.7068,-2.6937,-2.7054,-2.7053,-2.7052,-2.7052,-2.7052,-2.6767,-2.6799,-2.6821,-2.6858,-2.6876,-2.6899,-2.693,-2.6939,-2.6972,-2.7008,-2.7005,-2.7048,-2.7069,-2.7111,-2.7126,-2.7159,-2.7144,-2.716,-2.7164,-2.7167,-2.7171,-2.7062,-2.7165,-2.7164,-2.7164,-2.7164,-2.7164,0,-2.687,-2.6884,-2.6917,-2.6952,-2.698,-2.6966,-2.6992,-2.7017,-2.7055,-2.7076,-2.7105,-2.7149,-2.7184,-2.7196,-2.723,-2.7254,-2.7249,-2.7263,-2.7261,-2.7263,-2.7183,-2.717,-2.7266,-2.7266,-2.7266,-2.7266,-2.7266,-2.7266,-2.6927,-2.698,-2.6983,-2.7045,-2.7058,-2.71,-2.7116,-2.7136,-2.7153,-2.7203,-2.7232,-2.724,-2.7257,-2.7292,-2.7323,-2.7326,-2.7338,-2.7355,-2.7355,-2.728,-2.7269,-2.7259,-2.7247,-2.7358,-2.7358,-2.7432,-2.7433,-2.7433]}]]